Tracking 21606 objects as of 24-Oct-2020
HD Live streaming from Space Station
objects crossing your sky now

GORIZONT 13

Track GORIZONT 13 now!
GORIZONT 13 is classified as:


NORAD ID: 17083
Int'l Code: 1986-090A
Perigee: 36,746.9 km
Apogee: 36,889.5 km
Inclination: 15.0 °
Period: 1,488.8 minutes
Semi major axis: 43189 km
RCS: 2.5139 m2 (large)
Launch date: November 18, 1986
Source: Commonwealth of Independent States (former USSR) (CIS)
Launch site: TYURATAM MISSILE AND SPACE COMPLEX (TTMTR)
aabbcc
Your satellite tracking list
Your tracking list is empty




NASA's NSSDC Master Catalog

Two Line Element Set (TLE):
1 17083U 86090A   20298.22350378 -.00000085 +00000-0 +00000-0 0  9997
2 17083 014.9684 343.8809 0016499 325.6821 059.3959 00.96725355098700
Source of the keplerian elements: AFSPC